METEOR 2-17 DEB, 31402

Orbit data source: Space-Track

METEOR 2-17 DEB, 31402 is space debris in LEO originally from a launch on Sat, 30 Jan 1988 UTC launched from the Plesetsk Missile And Space Complex (PKMTR). Debris objects in space refer to the collection of defunct objects orbiting the Earth. Examples of debris include non-operational satellites, rocket bodies, and fragments generated from explosions, collisions, or faulty payload assembly.

Loading next visibility...
Identifier
31402, 1988-005X
Orbit
LEO
Country
Flag of CISCIS
Related business
Manufacturer
Unknown
Mission
Spacecraft
Bus & Motor
Unknown
Mass
Unknown
Launch date (UTC)
1988-01-30 (38 years ago)
Launch vehicle
Unknown
Launch site
Plesetsk Missile And Space Complex (PKMTR)
Object type
Payload
Rocket body
Debris
Shape & HBR
Unknown shape, 0.1 m
Radar Cross Section
Small (<0.1 m²)

Expand to show TLE details & history
Last TLE update: 1 day ago

TLE from 1 day ago
0 METEOR 2-17 DEB
1 31402U 88005X   25351.16605602  .00002208  00000-0  13680-2 0  9995
2 31402  82.5409  51.8394 0005946  76.0493 314.5522 14.04796417973164
Epoch: 2025-12-17T03:59Z
TLE epoch observation values (Epoch: 2025-12-17T03:59:07.240Z)
Latitude
30.31919°
Longitude
-89.61253°
Altitude
878.032 km
Speed
7.418 km/s
True Right ascension
03h 44m 49s
True Declination
30° 10' 19"
Sunlit
Object was in full shadow at epoch
Visualization orbit readout
Latitude
Unknown
Longitude
Unknown
Altitude
Unknown
Speed
Unknown
Apparent Right ascension
Unknown
Apparent Declination
Unknown
Sunlit
N/A
Visualization observer readout
Local Sidereal Time
08:15:25
Azimuth
Unknown
Elevation
Unknown
Doppler factor
Unknown
Orbital elements
Apogee altitude
878.669 km
Perigee altitude
870.045 km
Semi-major axis
7,252.494 km
Eccentricity
0.00059
Inclination
82.5409°
RAAN
51.8394°
Arg. of periapsis
76.0493°
True anomaly
314.50362°
Mean anomaly
314.5522°
Eccentric anomaly
314.52791°
Mean motion
3.51408 °/min
Orbital period
102.44 mins
BSTAR
0.001368
Loading maneuver chart data...
Computing Atmospheric mass density...
Loading historical data...
Loading historical data...
Loading historical data...
Loading historical data...
Loading historical data...
Loading historical data...
Loading historical data...

Documentation

Showing up to 5 results
|